"Pseudo-MPEC" for P21Y2I8

Created 2024 Sep 5 18:22:34 UT using Find_Orb

Click here for an explanation of pseudo-MPECs

 
 Astrometry: 
     P21Y2I8  C2024 08 01.42765722 03 47.579+14 13 41.26   ~95C7 21.98wXNEOCPF52
     P21Y2I8  C2024 08 01.43878822 03 46.777+14 13 48.09   ~95C7 22.12wXNEOCPF52
     P21Y2I8  C2024 08 01.44991822 03 45.998+14 13 55.21   ~95C7 22.31wXNEOCPF52
     P21Y2I8  C2024 09 01.27018421 24 26.259+16 04 06.61   ~95C7 21.88wXNEOCPF51
     P21Y2I8  C2024 09 01.28285421 24 25.369+16 04 04.83   ~95C7 22.37wXNEOCPF51
     P21Y2I8  C2024 09 01.29556921 24 24.461+16 04 02.66   ~95C7 22.27wXNEOCPF51
     P21Y2I8* C2024 09 05.25754521 20 07.320+15 50 22.70   ~9587 21.93wXNEOCPF52
     P21Y2I8  C2024 09 05.26942821 20 06.542+15 50 20.01   ~9587 21.97wXNEOCPF52
     P21Y2I8  C2024 09 05.28130821 20 05.781+15 50 17.21   ~9587 22.06wXNEOCPF52
     P21Y2I8  C2024 09 05.29320421 20 05.018+15 50 14.28   ~9587 22.28wXNEOCPF52

Station data:
(F51) Pan-STARRS 1, Haleakala  (N20.707234 W156.255910)  US/Hawaii.
   Observers J. Bulger, T. Lowe, A. Schultz, M. Willman. Measurers K.
   Chambers, S. Chastel, T. de Boer, L. Denneau, J. Fairlamb, H. Flewelling,
   M. Huber, C.-C. Lin, E. Magnier, Y. Ramanjooloo, R. Wainscoat, R. Weryk.
   1.8-m Ritchey-Chrétien + CCD.
(F52) Pan-STARRS 2, Haleakala  (N20.707382 W156.255910)  US/Hawaii.
   Observers J. Bulger, T. Dukes, T. Lowe, A. Schultz, M. Willman. Measurers
   K. Chambers, S. Chastel, T. de Boer, L. Denneau, J. Fairlamb, H.
   Flewelling, M. Huber, C.-C. Lin, E. Magnier, Y. Ramanjooloo, R. Wainscoat,
   R. Weryk. 1.8-m Ritchey-Chrétien + CCD.

Orbital elements:  P21Y2I8
   Perihelion 2023 Nov 29.56747 +/- 0.117 TT = 13:37:09 (JD 2460278.06747)
Epoch 2024 Sep  5.0 TT = JDT 2460558.5   Earth MOID: 0.8054      AutoNEOCP
M 103.92760547 +/- 0.047            (J2000 ecliptic)
n   0.37059753 +/- 3.78e-5          Peri.  305.32908 +/- 0.035
a   1.91955708 +/- 0.000131         Node   280.43765 +/- 0.0057
e   0.0689563 +/- 9.55e-5           Incl.   18.24939 +/- 0.0025
P   2.660/971.386d         H 19.59  G  0.15   U  5.9
q 1.78719145 +/- 0.000102    Q 2.05192272 +/- 0.000311
From 10 observations 2024 Aug. 1-Sept. 5; mean residual 0".09
Residuals in arcseconds: 
240801 F52  .06+  .08-    240901 F51  .06+  .12+    240905 F52  .06-  .06+    
240801 F52  .12-  .10-    240901 F51  .04+  .01-    240905 F52  .03-  .05-    
240801 F52  .06+  .18+    240905 F52  .16+  .05-    
240901 F51  .11-  .12-    240905 F52  .08-  .05+    

Ephemerides (geocentric):
Date (UTC) HH   RA             Dec           delta  r     elong  mag " sig PA
---- --------  ------------   ------------  ------ ------ -----  --- --------
2024 09 05 18  21 19 37.009   +15 48 21.99  1.0373 1.9604 146.8 22.0 .087 170
2024 09 05 19  21 19 34.496   +15 48 11.48  1.0375 1.9604 146.8 22.0 .089 170
2024 09 05 20  21 19 31.987   +15 48 00.94  1.0376 1.9604 146.8 22.0 .090 170
2024 09 05 21  21 19 29.481   +15 47 50.37  1.0378 1.9605 146.8 22.0 .092 170
2024 09 05 22  21 19 26.978   +15 47 39.78  1.0380 1.9605 146.8 22.0 .094 170
2024 09 05 23  21 19 24.479   +15 47 29.15  1.0381 1.9605 146.7 22.0 .096 170
2024 09 06 00  21 19 21.984   +15 47 18.50  1.0383 1.9606 146.7 22.0 .098 170
2024 09 06 01  21 19 19.492   +15 47 07.82  1.0385 1.9606 146.7 22.0 .100 170
2024 09 06 02  21 19 17.003   +15 46 57.11  1.0386 1.9606 146.7 22.0 .101 170
2024 09 06 03  21 19 14.518   +15 46 46.36  1.0388 1.9607 146.6 22.0 .103 169
2024 09 06 04  21 19 12.036   +15 46 35.59  1.0390 1.9607 146.6 22.0 .105 169
2024 09 06 05  21 19 09.557   +15 46 24.80  1.0391 1.9607 146.6 22.0 .107 169
2024 09 06 06  21 19 07.083   +15 46 13.97  1.0393 1.9608 146.6 22.0 .109 169
2024 09 06 07  21 19 04.611   +15 46 03.11  1.0395 1.9608 146.5 22.0 .111 169
2024 09 06 08  21 19 02.143   +15 45 52.23  1.0396 1.9608 146.5 22.0 .112 169
2024 09 06 09  21 18 59.679   +15 45 41.32  1.0398 1.9609 146.5 22.0 .114 169
2024 09 06 10  21 18 57.218   +15 45 30.37  1.0400 1.9609 146.5 22.0 .116 169
2024 09 06 11  21 18 54.760   +15 45 19.40  1.0402 1.9609 146.5 22.0 .118 169
2024 09 06 12  21 18 52.306   +15 45 08.41  1.0403 1.9610 146.4 22.0 .120 169
2024 09 06 13  21 18 49.855   +15 44 57.38  1.0405 1.9610 146.4 22.0 .122 169
2024 09 06 14  21 18 47.408   +15 44 46.33  1.0407 1.9610 146.4 22.0 .124 169
2024 09 06 15  21 18 44.965   +15 44 35.24  1.0408 1.9611 146.4 22.0 .126 168
2024 09 06 16  21 18 42.525   +15 44 24.13  1.0410 1.9611 146.3 22.0 .127 168
2024 09 06 17  21 18 40.088   +15 44 12.99  1.0412 1.9611 146.3 22.0 .129 168
2024 09 06 18  21 18 37.655   +15 44 01.83  1.0414 1.9612 146.3 22.0 .131 168
2024 09 06 19  21 18 35.225   +15 43 50.63  1.0415 1.9612 146.3 22.0 .133 168
2024 09 06 20  21 18 32.799   +15 43 39.41  1.0417 1.9612 146.2 22.0 .135 168
2024 09 06 21  21 18 30.377   +15 43 28.16  1.0419 1.9613 146.2 22.0 .137 168
2024 09 06 22  21 18 27.958   +15 43 16.88  1.0421 1.9613 146.2 22.0 .139 168
2024 09 06 23  21 18 25.543   +15 43 05.57  1.0422 1.9613 146.2 22.0 .141 168
2024 09 07 00  21 18 23.131   +15 42 54.24  1.0424 1.9614 146.1 22.0 .143 168
2024 09 07 01  21 18 20.722   +15 42 42.88  1.0426 1.9614 146.1 22.0 .145 168
2024 09 07 02  21 18 18.317   +15 42 31.49  1.0428 1.9614 146.1 22.0 .146 168
2024 09 07 03  21 18 15.916   +15 42 20.08  1.0429 1.9615 146.1 22.0 .148 168
2024 09 07 04  21 18 13.519   +15 42 08.63  1.0431 1.9615 146.0 22.0 .150 167
2024 09 07 05  21 18 11.124   +15 41 57.16  1.0433 1.9615 146.0 22.0 .152 167
2024 09 07 06  21 18 08.734   +15 41 45.66  1.0435 1.9616 146.0 22.0 .154 167
2024 09 07 07  21 18 06.347   +15 41 34.14  1.0436 1.9616 146.0 22.0 .156 167
2024 09 07 08  21 18 03.963   +15 41 22.59  1.0438 1.9616 145.9 22.0 .158 167
2024 09 07 09  21 18 01.584   +15 41 11.01  1.0440 1.9617 145.9 22.0 .160 167
2024 09 07 10  21 17 59.207   +15 40 59.40  1.0442 1.9617 145.9 22.0 .162 167
2024 09 07 11  21 17 56.835   +15 40 47.77  1.0444 1.9617 145.9 22.0 .164 167
2024 09 07 12  21 17 54.466   +15 40 36.11  1.0445 1.9618 145.9 22.0 .166 167
2024 09 07 13  21 17 52.100   +15 40 24.42  1.0447 1.9618 145.8 22.0 .168 167
2024 09 07 14  21 17 49.738   +15 40 12.71  1.0449 1.9618 145.8 22.0 .170 167
2024 09 07 15  21 17 47.380   +15 40 00.97  1.0451 1.9619 145.8 22.0 .172 167
2024 09 07 16  21 17 45.025   +15 39 49.20  1.0453 1.9619 145.8 22.0 .174 167
2024 09 07 17  21 17 42.674   +15 39 37.41  1.0454 1.9619 145.7 22.0 .176 167